Location: Fensholt
(55.9856°N, 10.0808°E)
Time: 20:10:55
(UTC+00:00)

Cosmos 1400 Rocket - Pass Details

Date: 10 October 2020
Orbit: 521 x 568 km, 81.2° (Epoch: 29 October)

Event Time Altitude Azimuth Distance (km) Brightness Sun altitude
Rises 04:59:39 0° 353° (N) 2,775 6.3 -6.6°
Reaches altitude 10° 05:02:29 10° 13° (NNE) 1,867 5.7 -6.2°
Maximum altitude 05:05:17 17° 56° (NE) 1,437 5.8 -5.8°
Drops below altitude 10° 05:08:03 10° 99° (E) 1,841 7.4 -5.5°
Sets 05:10:48 0° 120° (ESE) 2,721 7.7 -5.1°
